User: anonymous   Login
Location: Unspecified
(0.0000°N, 0.0000°E)
Time: 17:47:14
(UTC+00:00)
Language:

TMSAT-1 - Orbit

View from above orbital plane
View from above orbital plane
View from above satellite
View from above satellite

Ground track
Ground track

The orbit data is extracted from the following two-line orbital elements,

1 25396U 98043C   18016.90689875 +.00000000 +00000-0 +18790-4 0  9996
2 25396 098.6104 321.3278 0003712 071.0417 289.1165 14.24468050014342
Epoch (UTC): 16 January 2018 21:45:56
Eccentricity: 0.0003712
inclination: 98.6104°
perigee height: 807 km
apogee height: 813 km
right ascension of ascending node: 321.3278°
argument of perigee: 71.0417°
revolutions per day: 14.24468050
mean anomaly at epoch: 289.1165°
orbit number at epoch: 1434

The dashed part of the orbit path shows where the satellite is in the earth's shadow,  

DLR